Location: Borz?cin
(51.1714°N, 19.6030°E)
Time: 08:13:55
(UTC+00:00)

Cosmos 1833 Rocket - Pass Details

Date: 19 May 2025
Orbit: 831 x 839 km, 71.0° (Epoch: 16 June)

Event Time Altitude Azimuth Distance (km) Brightness Sun altitude
Rises 20:23:19 0° 215° (SW) 3,380 5.6 -13.0°
Reaches altitude 10° 20:25:46 10° 218° (SW) 2,450 4.9 -13.2°
Maximum altitude 20:31:22 71° 302° (WNW) 890 3.0 -13.6°
Drops below altitude 10° 20:37:02 10° 27° (NNE) 2,465 5.6 -14.1°
Sets 20:39:30 0° 30° (NNE) 3,403 6.3 -14.2°
